{"data":{"norad_id":65283,"intl_designator":"2025-184L","name":"STARLINK-35015","alt_names":[],"object_type":"PAYLOAD","status":"ACTIVE","operator":null,"country":"US","launch_date":"2025-08-22","launch_site_code":"AFWTR","launch_vehicle":null,"mission":null,"orbit_class":"UNKNOWN","rcs_meters":null,"size_class":null,"mass_kg":null,"dimensions":null,"purposes":["comms"],"wikipedia_slug":null,"has_3d_model":false,"image_url":null,"decayed_at":null,"tle_current":{"epoch":"2026-05-25T03:55:52.438368Z","epoch_age_seconds":56946,"freshness":"FRESH","line1":"1 65283U 25184L   26145.16380137  .00001021  00000+0  74800-4 0  9997","line2":"2 65283  97.4502 197.6054 0001255 148.9471 211.1831 15.05651616 42809","mean_motion":15.05651616,"eccentricity":0.0001255,"inclination_deg":97.4502,"raan_deg":197.6054,"arg_perigee_deg":148.9471,"mean_anomaly_deg":211.1831,"bstar":7.48e-5,"rev_number":4280,"period_min":95.639654266475,"perigee_km":548.63677790252,"apogee_km":550.375616345,"semimajor_km":6927.6431971238,"source":"CELESTRAK","updated_at":"2026-05-25T13:38:20.731447Z"}}}